Regional Weather Roundup
Issued by NWS

Home | Current Version | Previous Version | Text Only | Print | Product List | Glossary On
Versions: 1 2 3 4 5 6 7 8 9 10 11 12 13 14 15 16 17 18 19 20 21 22 23 24 25 26 27 28 29 30 31 32 33 34 35 36 37 38 39 40 41 42 43 44 45 46 47 48 49 50
000
ASUS43 KMKX 310500
RWRWI

WISCONSIN REGIONAL WEATHER ROUNDUP
NATIONAL WEATHER SERVICE MILWAUKEE/SULLIVAN WI
1200 AM CDT TUE MAY 31 2016

NOTE: "FAIR" INDICATES FEW OR NO CLOUDS BELOW 12,000 FEET WITH NO
SIGNIFICANT WEATHER AND/OR OBSTRUCTIONS TO VISIBILITY.

WIZ001-002-006>008-014>016-023>028-310600-
NORTHWEST WISCONSIN

CITY           SKY/WX    TMP DP  RH WIND       PRES   REMARKS
SUPERIOR ARPT  CLOUDY    55  47  73 NE15      29.97R
ASHLAND        CLOUDY    54  48  80 N15       30.04R
HAYWARD        CLEAR     60  54  80 NE5       29.98R
SIREN          PTCLDY    62  55  76 CALM      29.94S
CUMBERLAND     CLOUDY    64  54  68 E3        29.96S
RICE LAKE      CLOUDY    67  57  69 CALM      29.97S
CHETEK         MOCLDY    66  59  79 E3        29.95S
LADYSMITH      CLOUDY    60  56  85 CALM      29.99R
EAU CLAIRE     NOT AVBL
MENOMONIE      MOCLDY    67  56  67 SE5       29.94S
NEW RICHMOND   MOCLDY    69  52  55 SE7       29.94S
OSCEOLA        CLOUDY    71  53  52 SE7       29.94F
$$

WIZ003>005-009-010-017-018-310600-
NORTH CENTRAL WISCONSIN

CITY           SKY/WX    TMP DP  RH WIND       PRES   REMARKS
MANITOWISH WTR NOT AVBL
ARBOR VITAE    CLOUDY    63  49  59 E3        30.01S
WOODRUFF       CLOUDY    63  49  59 E3        30.01S
RHINELANDER    CLOUDY    62  53  72 NE5       30.01F
EAGLE RIVER      N/A     53  52  95 CALM      30.02F
LAND O LAKES   MOCLDY    59  47  63 NE6       30.04F
PHILLIPS       MOCLDY    59  55  87 CALM      29.99S
TOMAHAWK       PTCLDY    57  54  90 CALM      30.00F
MEDFORD        PTCLDY    60  55  83 CALM      29.98S
MERRILL        CLOUDY    57  56  98 NE5       30.00F
$$

WIZ029-030-035-036-043>047-310600-
CENTRAL WISCONSIN

CITY           SKY/WX    TMP DP  RH WIND       PRES   REMARKS
WAUSAU         MOCLDY    63  54  72 E3        29.97F
MOSINEE        CLOUDY    61  52  72 CALM      29.99F
MARSHFIELD     PTCLDY    66  52  60 CALM      29.99R
STEVENS POINT  CLOUDY    58  54  85 CALM      29.99S
WAUPACA        CLOUDY    62  60  93 CALM      29.98F
WAUTOMA        CLOUDY   N/A N/A N/A CALM      29.99S
WISC RAPIDS    MOCLDY    64  50  60 SE5       30.00R
CAMP DOUGLAS   NOT AVBL
$$

WIZ011>013-019>022-031-037>040-048>050-310600-
NORTHEAST WISCONSIN

CITY           SKY/WX    TMP DP  RH WIND       PRES   REMARKS
ANTIGO         PTCLDY    57  55  91 CALM      30.01F
SHAWANO        CLOUDY    60  55  83 CALM      29.97F
OCONTO         CLOUDY   N/A N/A N/A CALM      29.97F
STURGEON BAY   NOT AVBL
GREEN BAY      CLOUDY    64  57  78 CALM      29.97F
MANITOWOC      NOT AVBL
APPLETON       PTCLDY    64  48  55 SE3       29.98S
CLINTONVILLE   CLOUDY    59  52  77 SE3       29.98S
OSHKOSH        CLOUDY    63  57  81 S7        29.98S
$$

WIZ032>034-041-042-053>061-310600-
SOUTHWEST WISCONSIN

CITY           SKY/WX    TMP DP  RH WIND       PRES   REMARKS
LA CROSSE      LGT RAIN  70  58  65 SE10      29.96R
SPARTA         CLOUDY    66  55  69 CALM      29.96S THUNDER
VIROQUA        CLOUDY    68  55  63 S9G22     30.02R
BOSCOBEL       LGT RAIN  71  57  61 SW8       30.00R
PRAIRIE DU CHI RAIN      63  62  95 CALM      30.01R
PLATTEVILLE    CLOUDY    72  51  48 S12       29.99R
$$

WIZ056-057-062-063-064-067-068-310600-
SOUTH CENTRAL WISCONSIN

CITY           SKY/WX    TMP DP  RH WIND       PRES   REMARKS
REEDSBURG      CLOUDY    61  57  84 CALM      29.97S
BARABOO/DELLS  CLOUDY    66  51  57 CALM      29.98R
LONE ROCK      NOT AVBL
MINERAL POINT  CLOUDY    72  45  37 E7        29.98S
MADISON        CLOUDY    68  55  63 SE8       29.98R
MIDDLETON      CLOUDY    62  58  84 CALM      29.99S
WATERTOWN      CLOUDY    63  59  85 E5        30.00R
MONROE         CLOUDY    68  50  52 E6        29.98S
JANESVILLE     CLEAR     66  57  72 E6        29.98S
$$

WIZ051-052-058>065-066-070>072-310600-
SOUTHEAST WISCONSIN

CITY           SKY/WX    TMP DP  RH WIND       PRES   REMARKS
MILWAUKEE      CLOUDY    65  56  72 S3        30.01R
WAUKESHA       CLOUDY    63  52  67 CALM      30.02R
MILWAUKEE/TIMM CLOUDY    63  54  72 CALM      30.01S
RACINE         CLOUDY    63  57  81 CALM      30.02S
BURLINGTON     MOCLDY    62  55  79 CALM      30.01R
KENOSHA        PTCLDY    59  56  89 CALM      30.00F
FOND DU LAC    CLOUDY    64  58  80 S5        29.99S
SHEBOYGAN      CLOUDY    60  55  83 CALM      30.00S
WEST BEND      CLOUDY    59  57  94 CALM      30.00S
JUNEAU         MOCLDY    64  58  81 SE6       30.01R
$$

LSZ147-162-310600-
LAKE SUPERIOR

STATION/POSITION TIME  TEMP    WIND        PRES    WAVE
                       AIR SEA DIR/SP/G            HT/PER
                 (UTC) (F)     (DEG/KT/KT) (MB)    (FT/S)
W MID LAKE BUOY  0350   44 38   80/ 16/ 19 1018.2R   2/ 3
DEVILS ISLAND    0400   49      90/ 27/ 31 1017.5R
SAXON HARBOR     0420   56      70/  3/ 21 1016.9R
$$

LMZ867-665-643>646-310600-
LAKE MICHIGAN

STATION/POSITION TIME  TEMP    WIND        PRES    WAVE
                       AIR SEA DIR/SP/G            HT/PER
                 (UTC) (F)     (DEG/KT/KT) (MB)    (FT/S)
CHAMBERS ISLAND  0400   61      10/  7/ 10 1016.3R
N MID LAKE BUOY  0350   58 50   CALM  /  2 1015.9R   1
NORTHPORT PIER   0400   60     350/  4/  6 1015.9R
KEWAUNEE LAKESHO 0400   59      CALM  /  1 1014.8
SHEBOYGAN LAKESH 0400   63     210/  4/  4 1016.1F
PORT WASHINGTON  0440   57        CALM     1016.6S
S MID LAKE BUOY  0350   60 58  110/  4/  4 1015.5R   0
KENOSHA   LAKESH 0400   62      CALM  /  1 1015.9S
$$

TC  - TEMPERATURE IN CELSIUS
VSB - VISIBILITY IN STATUTE MILES
WCI - WIND CHILL INDEX
HX  - HEAT INDEX





USA.gov is the U.S. government's official web portal to all federal, state and local government web resources and services.